Time,TemperatureF,DewpointF,PressureIn,WindDirection,WindDirectionDegrees,WindSpeedMPH,WindSpeedGustMPH,Humidity,HourlyPrecipIn,Conditions,Clouds,dailyrainin,SoftwareType,DateUTC
2013-04-18 00:06:00,-999.0,-99.9,30.23,North,-999,-999.0,-999.0,-999,-99.99,,,0.00,weatherlink.com 1.10,2013-04-18 04:06:00,
2013-04-18 00:36:00,-999.0,-99.9,30.19,North,-999,-999.0,-999.0,-999,-99.99,,,0.00,weatherlink.com 1.10,2013-04-18 04:36:00,
2013-04-18 00:51:00,-999.0,-99.9,30.19,North,-999,-999.0,-999.0,-999,-99.99,,,0.00,weatherlink.com 1.10,2013-04-18 04:51:00,
2013-04-18 01:21:00,-999.0,-99.9,30.20,North,-999,-999.0,-999.0,-999,-99.99,,,0.00,weatherlink.com 1.10,2013-04-18 05:21:00,
2013-04-18 01:36:00,-999.0,-99.9,30.20,North,-999,-999.0,-999.0,-999,-99.99,,,0.00,weatherlink.com 1.10,2013-04-18 05:36:00,
2013-04-18 01:51:00,-999.0,-99.9,30.18,North,-999,-999.0,-999.0,-999,-99.99,,,0.00,weatherlink.com 1.10,2013-04-18 05:51:00,
2013-04-18 02:06:00,-999.0,-99.9,30.17,North,-999,-999.0,-999.0,-999,-99.99,,,0.00,weatherlink.com 1.10,2013-04-18 06:06:00,
2013-04-18 02:21:00,-999.0,-99.9,30.14,North,-999,-999.0,-999.0,-999,-99.99,,,0.00,weatherlink.com 1.10,2013-04-18 06:21:00,
2013-04-18 02:36:00,-999.0,-99.9,30.14,North,-999,-999.0,-999.0,-999,-99.99,,,0.00,weatherlink.com 1.10,2013-04-18 06:36:00,
2013-04-18 02:51:00,-999.0,-99.9,30.12,North,-999,-999.0,-999.0,-999,-99.99,,,0.00,weatherlink.com 1.10,2013-04-18 06:51:00,
2013-04-18 03:06:00,-999.0,-99.9,30.11,North,-999,-999.0,-999.0,-999,-99.99,,,0.00,weatherlink.com 1.10,2013-04-18 07:06:00,
2013-04-18 03:21:00,-999.0,-99.9,30.09,North,-999,-999.0,-999.0,-999,-99.99,,,0.00,weatherlink.com 1.10,2013-04-18 07:21:00,
2013-04-18 03:36:00,-999.0,-99.9,30.10,North,-999,-999.0,-999.0,-999,-99.99,,,0.00,weatherlink.com 1.10,2013-04-18 07:36:00,
2013-04-18 03:51:00,-999.0,-99.9,30.10,North,-999,-999.0,-999.0,-999,-99.99,,,0.00,weatherlink.com 1.10,2013-04-18 07:51:00,
2013-04-18 04:06:00,-999.0,-99.9,30.08,North,-999,-999.0,-999.0,-999,-99.99,,,0.00,weatherlink.com 1.10,2013-04-18 08:06:00,
2013-04-18 04:21:00,-999.0,-99.9,30.07,North,-999,-999.0,-999.0,-999,-99.99,,,0.00,weatherlink.com 1.10,2013-04-18 08:21:00,
2013-04-18 04:36:00,-999.0,-99.9,30.07,North,-999,-999.0,-999.0,-999,-99.99,,,0.00,weatherlink.com 1.10,2013-04-18 08:36:00,
2013-04-18 04:51:00,-999.0,-99.9,30.06,North,-999,-999.0,-999.0,-999,-99.99,,,0.00,weatherlink.com 1.10,2013-04-18 08:51:00,
2013-04-18 05:06:00,-999.0,-99.9,30.07,North,-999,-999.0,-999.0,-999,-99.99,,,0.00,weatherlink.com 1.10,2013-04-18 09:06:00,
2013-04-18 05:21:00,-999.0,-99.9,30.06,North,-999,-999.0,-999.0,-999,-99.99,,,0.00,weatherlink.com 1.10,2013-04-18 09:21:00,
2013-04-18 05:36:00,-999.0,-99.9,30.05,North,-999,-999.0,-999.0,-999,-99.99,,,0.00,weatherlink.com 1.10,2013-04-18 09:36:00,
2013-04-18 05:51:00,-999.0,-99.9,30.05,North,-999,-999.0,-999.0,-999,-99.99,,,0.00,weatherlink.com 1.10,2013-04-18 09:51:00,
2013-04-18 06:06:00,-999.0,-99.9,30.05,North,-999,-999.0,-999.0,-999,-99.99,,,0.00,weatherlink.com 1.10,2013-04-18 10:06:00,
2013-04-18 06:21:00,-999.0,-99.9,30.03,North,-999,-999.0,-999.0,-999,-99.99,,,0.00,weatherlink.com 1.10,2013-04-18 10:21:00,
2013-04-18 06:36:00,-999.0,-99.9,30.04,North,-999,-999.0,-999.0,-999,-99.99,,,0.00,weatherlink.com 1.10,2013-04-18 10:36:00,
2013-04-18 06:51:00,-999.0,-99.9,30.03,North,-999,-999.0,-999.0,-999,-99.99,,,0.00,weatherlink.com 1.10,2013-04-18 10:51:00,
2013-04-18 07:06:00,-999.0,-99.9,30.03,North,-999,-999.0,-999.0,-999,-99.99,,,0.00,weatherlink.com 1.10,2013-04-18 11:06:00,
2013-04-18 07:21:00,-999.0,-99.9,30.02,North,-999,-999.0,-999.0,-999,-99.99,,,0.00,weatherlink.com 1.10,2013-04-18 11:21:00,
2013-04-18 07:51:00,-999.0,-99.9,30.01,North,-999,-999.0,-999.0,-999,-99.99,,,0.00,weatherlink.com 1.10,2013-04-18 11:51:00,
2013-04-18 08:06:00,-999.0,-99.9,30.01,North,-999,-999.0,-999.0,-999,-99.99,,,0.00,weatherlink.com 1.10,2013-04-18 12:06:00,
2013-04-18 08:21:00,-999.0,-99.9,30.01,North,-999,-999.0,-999.0,-999,-99.99,,,0.00,weatherlink.com 1.10,2013-04-18 12:21:00,
2013-04-18 08:36:00,-999.0,-99.9,30.00,North,-999,-999.0,-999.0,-999,-99.99,,,0.00,weatherlink.com 1.10,2013-04-18 12:36:00,
2013-04-18 08:51:00,-999.0,-99.9,30.00,North,-999,-999.0,-999.0,-999,-99.99,,,0.00,weatherlink.com 1.10,2013-04-18 12:51:00,
2013-04-18 09:21:00,-999.0,-99.9,29.98,North,-999,-999.0,-999.0,-999,-99.99,,,0.00,weatherlink.com 1.10,2013-04-18 13:21:00,
2013-04-18 09:36:00,-999.0,-99.9,29.97,North,-999,-999.0,-999.0,-999,-99.99,,,0.00,weatherlink.com 1.10,2013-04-18 13:36:00,
2013-04-18 10:06:00,-999.0,-99.9,29.95,North,-999,-999.0,-999.0,-999,-99.99,,,0.00,weatherlink.com 1.10,2013-04-18 14:06:00,
2013-04-18 10:36:00,-999.0,-99.9,29.94,North,-999,-999.0,-999.0,-999,-99.99,,,0.00,weatherlink.com 1.10,2013-04-18 14:36:00,
2013-04-18 11:21:00,71.4,57.0,29.93,SE,142,14.0,-999.0,61,-99.99,,,0.00,weatherlink.com 1.10,2013-04-18 15:21:00,
2013-04-18 11:51:00,73.4,59.0,29.91,SSE,153,16.0,-999.0,60,-99.99,,,0.00,weatherlink.com 1.10,2013-04-18 15:51:00,
2013-04-18 12:06:00,74.7,59.0,29.90,WSW,239,7.0,-999.0,59,-99.99,,,0.00,weatherlink.com 1.10,2013-04-18 16:06:00,
2013-04-18 12:21:00,74.6,59.0,29.89,SSW,205,13.0,-999.0,58,-99.99,,,0.00,weatherlink.com 1.10,2013-04-18 16:21:00,
2013-04-18 12:36:00,75.1,59.0,29.88,South,176,8.0,-999.0,57,-99.99,,,0.00,weatherlink.com 1.10,2013-04-18 16:36:00,
2013-04-18 12:51:00,74.8,59.0,29.88,SE,142,7.0,-999.0,58,-99.99,,,0.00,weatherlink.com 1.10,2013-04-18 16:51:00,
2013-04-18 13:06:00,76.6,59.0,29.88,SSE,163,3.0,-999.0,55,-99.99,,,0.00,weatherlink.com 1.10,2013-04-18 17:06:00,
2013-04-18 13:21:00,76.4,59.0,29.87,South,171,6.0,-999.0,55,-99.99,,,0.00,weatherlink.com 1.10,2013-04-18 17:21:00,
2013-04-18 13:36:00,77.5,59.0,29.86,SSE,164,6.0,-999.0,53,-99.99,,,0.00,weatherlink.com 1.10,2013-04-18 17:36:00,
2013-04-18 13:51:00,78.7,60.0,29.84,SE,138,13.0,-999.0,52,-99.99,,,0.00,weatherlink.com 1.10,2013-04-18 17:51:00,
2013-04-18 14:06:00,78.2,59.0,29.84,South,180,7.0,-999.0,52,-99.99,,,0.00,weatherlink.com 1.10,2013-04-18 18:06:00,
2013-04-18 14:21:00,78.2,59.0,29.84,SE,132,6.0,-999.0,51,-99.99,,,0.00,weatherlink.com 1.10,2013-04-18 18:21:00,
2013-04-18 14:36:00,78.6,58.0,29.84,SSE,160,9.0,-999.0,50,-99.99,,,0.00,weatherlink.com 1.10,2013-04-18 18:36:00,
2013-04-18 14:51:00,78.6,58.0,29.84,SE,141,7.0,-999.0,50,-99.99,,,0.00,weatherlink.com 1.10,2013-04-18 18:51:00,
2013-04-18 15:06:00,78.1,58.0,29.82,SSE,155,3.0,-999.0,51,-99.99,,,0.00,weatherlink.com 1.10,2013-04-18 19:06:00,
2013-04-18 15:21:00,78.7,59.0,29.81,SE,138,19.0,-999.0,51,-99.99,,,0.00,weatherlink.com 1.10,2013-04-18 19:21:00,
2013-04-18 15:36:00,78.7,58.0,29.82,ESE,105,11.0,-999.0,50,-99.99,,,0.00,weatherlink.com 1.10,2013-04-18 19:36:00,
2013-04-18 15:51:00,77.8,58.0,29.82,SE,140,10.0,-999.0,51,-99.99,,,0.00,weatherlink.com 1.10,2013-04-18 19:51:00,
2013-04-18 16:06:00,76.9,58.0,29.80,SE,144,10.0,-999.0,52,-99.99,,,0.00,weatherlink.com 1.10,2013-04-18 20:06:00,
2013-04-18 16:21:00,76.7,58.0,29.80,SSE,157,12.0,-999.0,53,-99.99,,,0.00,weatherlink.com 1.10,2013-04-18 20:21:00,
2013-04-18 16:36:00,76.1,58.0,29.79,SSE,147,5.0,-999.0,54,-99.99,,,0.00,weatherlink.com 1.10,2013-04-18 20:36:00,
2013-04-18 16:51:00,76.1,59.0,29.78,SE,141,8.0,-999.0,55,-99.99,,,0.00,weatherlink.com 1.10,2013-04-18 20:51:00,
2013-04-18 17:06:00,75.8,59.0,29.76,SE,144,9.0,-999.0,56,-99.99,,,0.00,weatherlink.com 1.10,2013-04-18 21:06:00,
2013-04-18 17:21:00,75.4,58.0,29.77,South,175,12.0,-999.0,56,-99.99,,,0.00,weatherlink.com 1.10,2013-04-18 21:21:00,
2013-04-18 17:51:00,73.6,58.0,29.76,SSE,159,12.0,-999.0,59,-99.99,,,0.00,weatherlink.com 1.10,2013-04-18 21:51:00,
2013-04-18 18:06:00,72.1,58.0,29.76,SE,127,4.0,-999.0,61,-99.99,,,0.00,weatherlink.com 1.10,2013-04-18 22:06:00,
2013-04-18 18:21:00,71.3,57.0,29.75,SE,138,9.0,-999.0,61,-99.99,,,0.00,weatherlink.com 1.10,2013-04-18 22:21:00,
2013-04-18 18:36:00,70.4,57.0,29.77,SSW,200,12.0,-999.0,62,-99.99,,,0.00,weatherlink.com 1.10,2013-04-18 22:36:00,
2013-04-18 18:51:00,69.5,55.0,29.78,SSW,211,5.0,-999.0,61,-99.99,,,0.00,weatherlink.com 1.10,2013-04-18 22:51:00,
2013-04-18 19:06:00,68.0,53.0,29.77,SSW,200,10.0,-999.0,60,-99.99,,,0.00,weatherlink.com 1.10,2013-04-18 23:06:00,
2013-04-18 19:21:00,66.5,51.0,29.76,SSE,156,7.0,-999.0,57,-99.99,,,0.00,weatherlink.com 1.10,2013-04-18 23:21:00,
2013-04-18 19:36:00,65.8,49.0,29.75,SW,216,5.0,-999.0,55,-99.99,,,0.00,weatherlink.com 1.10,2013-04-18 23:36:00,
2013-04-18 19:51:00,65.3,47.0,29.76,SSE,159,4.0,-999.0,52,-99.99,,,0.00,weatherlink.com 1.10,2013-04-18 23:51:00,
2013-04-18 20:06:00,65.3,45.0,29.75,SSE,157,6.0,-999.0,49,-99.99,,,0.00,weatherlink.com 1.10,2013-04-19 00:06:00,
2013-04-18 20:21:00,65.3,45.0,29.75,South,172,12.0,-999.0,48,-99.99,,,0.00,weatherlink.com 1.10,2013-04-19 00:21:00,
2013-04-18 20:36:00,65.5,44.0,29.75,SSW,193,10.0,-999.0,46,-99.99,,,0.00,weatherlink.com 1.10,2013-04-19 00:36:00,
2013-04-18 20:51:00,65.6,43.0,29.75,South,173,9.0,-999.0,44,-99.99,,,0.00,weatherlink.com 1.10,2013-04-19 00:51:00,
2013-04-18 21:06:00,65.8,43.0,29.74,SSE,155,0.0,-999.0,43,-99.99,,,0.00,weatherlink.com 1.10,2013-04-19 01:06:00,
2013-04-18 21:21:00,66.2,43.0,29.74,SSW,192,5.0,-999.0,43,-99.99,,,0.00,weatherlink.com 1.10,2013-04-19 01:21:00,
2013-04-18 21:36:00,66.5,44.0,29.74,South,176,6.0,-999.0,44,-99.99,,,0.00,weatherlink.com 1.10,2013-04-19 01:36:00,
2013-04-18 21:51:00,66.7,44.0,29.74,ESE,115,5.0,-999.0,44,-99.99,,,0.00,weatherlink.com 1.10,2013-04-19 01:51:00,
2013-04-18 22:06:00,-999.0,-99.9,29.73,North,-999,-999.0,-999.0,-999,-99.99,,,0.00,weatherlink.com 1.10,2013-04-19 02:06:00,
2013-04-18 22:21:00,-999.0,-99.9,29.73,North,-999,-999.0,-999.0,-999,-99.99,,,0.00,weatherlink.com 1.10,2013-04-19 02:21:00,
2013-04-18 22:36:00,-999.0,-99.9,29.72,North,-999,-999.0,-999.0,-999,-99.99,,,0.00,weatherlink.com 1.10,2013-04-19 02:36:00,
2013-04-18 22:51:00,-999.0,-99.9,29.72,North,-999,-999.0,-999.0,-999,-99.99,,,0.00,weatherlink.com 1.10,2013-04-19 02:51:00,
2013-04-18 23:06:00,-999.0,-99.9,29.71,North,-999,-999.0,-999.0,-999,-99.99,,,0.00,weatherlink.com 1.10,2013-04-19 03:06:00,
2013-04-18 23:21:00,-999.0,-99.9,29.71,North,-999,-999.0,-999.0,-999,-99.99,,,0.00,weatherlink.com 1.10,2013-04-19 03:21:00,
2013-04-18 23:36:00,-999.0,-99.9,29.71,North,-999,-999.0,-999.0,-999,-99.99,,,0.00,weatherlink.com 1.10,2013-04-19 03:36:00,
2013-04-18 23:51:00,-999.0,-99.9,29.70,North,-999,-999.0,-999.0,-999,-99.99,,,0.00,weatherlink.com 1.10,2013-04-19 03:51:00,